Preview of NWS' New Version of Forecast
This preview is not operational and should not be used for support decisions.

Regional Weather Roundup (RWR)

Issued by National Weather Service (NWS)

                            
000
ASUS43 KLSX 251007
RWRMO 

WEATHER SUMMARY FOR MISSOURI
NATIONAL WEATHER SERVICE SPRINGFIELD MO
500 AM CDT SUN AUG 25 2019

NOTE: "FAIR" INDICATES FEW OR NO CLOUDS BELOW 12,000 FEET WITH NO
       SIGNIFICANT WEATHER AND/OR OBSTRUCTIONS TO VISIBILITY.
       CURRENT SKY AND/OR WEATHER CONDITIONS ARE NOT AVAILABLE FOR
       CHILLICOTHE AND FARMINGTON.

MOZ001>031-035>038-043-044-053-054-251100-
...NORTHERN AND WESTERN MISSOURI...
  
CITY           SKY/WX    TMP DP  RH WIND       PRES   REMARKS
KANSAS CTY INT CLOUDY    68  61  78 SE12      29.94F                  
KANSAS C DTWN  CLOUDY    71  61  70 SE9       29.93F                  
LEE'S SUMMIT   CLOUDY    69  60  73 SE9       29.95F                  
ST JOSEPH      CLOUDY    67  60  78 SE9       29.92F                  
CHILLICOTHE      N/A     67  59  75 E7        29.99F                  
KIRKSVILLE     CLOUDY    63  60  90 E6        30.04F                  
     
$$
MOZ066>068-077>081-088>096-101>105-251100-
...SOUTHWEST MISSOURI...
  
CITY           SKY/WX    TMP DP  RH WIND       PRES   REMARKS
SPRINGFIELD    CLOUDY    68  63  84 SE10      29.97S                  
JOPLIN         CLOUDY    70  69  97 SE6       29.94F                  
               
$$
MOZ032>034-039>042-045>050-055>058-069>072-251100-
...CENTRAL MISSOURI...  
  
CITY           SKY/WX    TMP DP  RH WIND       PRES   REMARKS
COLUMBIA       CLOUDY    65  61  87 E7        30.01S                  
JEFFERSON CITY LGT RAIN  67  62  84 E3        30.00S                  
ROLLA          CLOUDY    65  60  84 SE5       30.01F                  
SEDALIA        CLOUDY    64  62  93 E7        29.99F                  
WHITEMAN AFB   CLOUDY    67  63  87 E5        29.93                   
WARRENSBURG    CLOUDY    66  61  82 E7        29.96F                  
OSAGE BEACH    CLOUDY    67  62  84 E3        30.00F                  
               
$$
MOZ051-052-059>065-251100-
...EAST CENTRAL MISSOURI...
  
CITY           SKY/WX    TMP DP  RH WIND       PRES   REMARKS
ST LOUIS INTL  CLOUDY    68  58  70 E7        30.02F                  
SPIRIT OF STL  CLOUDY    68  61  78 E3        30.01S                  
ST CHARLES       N/A    N/A N/A N/A MISG      30.02S                  
                   
$$
MOZ072>076-082>087-097>100-106>115-251100-
...SOUTH CENTRAL AND SOUTHEAST MISSOURI...
  
CITY           SKY/WX    TMP DP  RH WIND       PRES   REMARKS
CAPE GIRARDEAU MOCLDY    70  60  70 NE5       29.98F                  
FARMINGTON     LGT RAIN  64  63  96 SE6       30.02F                  
POPLAR BLUFF   CLOUDY    69  63  81 NE7       29.97F                  
WEST PLAINS    CLOUDY    65  63  93 E5        30.01S                  
                                       
$$